Location: Newark
(42.7133°N, 87.7910°W)
Time: 00:59:34
(UTC+00:00)

Vanguard 1 - Pass Details

Date: 29 October 2019
Orbit: 652 x 3831 km, 34.2° (Epoch: 16 November)

Event Time Altitude Azimuth Distance (km) Brightness Sun altitude
Rises 01:24:43 0° 263° (W) 3,732 14.2 -29.1°
Reaches altitude 10° 01:26:57 10° 257° (WSW) 3,025 13.4 -29.5°
Maximum altitude 01:34:10 49° 185° (S) 2,039 11.5 -30.8°
Enters shadow 01:36:46 42° 150° (SSE) 2,445 11.7 -31.2°
